Content
SEND FEEDBACK

Daily
Averages
Monthly
Summary
United States of America

CHICAGO, ILLINOIS


Home > North America > United States > Illinois
Elevation: 674 feet     Latitude: 41 59N     Longitude: 087 54W

WEATHER
 
SELECT A DAY
Number of Records: 199,667;   Date Range: 7/8/95 - 12/21/14
 
SHARE

PRINT THIS DATA

[ ← Previous Day ]
WEATHER ALMANAC - JANUARY 1, 2013
[ Next Day → ]
[ °C ]   °F
Weather ElementAverageHighLow
Temperature16.2 °F24.1 °F (12:52 pm)10.9 °F (6:52 am)
Dewpoint3.8 °F7 °F (1:52 am)1 °F (10:52 pm)
Humidity59.4 %74 % (4:52 am)40 % (1:52 pm)
Barometer30.22 in30.26 in (7:52 am)30.17 in (1:52 am)
Wind Speed7.8 mph11.5 mph (1:52 am)
Weather ElementAverage
Visibility10 mi
Wind DirectionWNW (293.5 °)

Weather ElementTotal
Precipitation---
Heating Degree Days47.5 (Base 65)
Averaged from 23 records on January 1, 2013
WEATHER CONDITIONS BREAKOUT
WIND DIRECTION BREAKOUT
WEATHER BY HOUR - JANUARY 1, 2013
[ °C ]   °F
Local TimeTemperatureDewpointHumidityBarometerVisibilityWind DirectionWind SpeedGust SpeedPrecipitationEventsConditions
1:52 AM17.1 °F7.0 °F65 %30.17 in10.0 miNNW (330°)11.5 mphOvercast
2:52 AM16.0 °F7.0 °F68 %30.18 in10.0 miNNW (330°)11.5 mphOvercast
3:52 AM15.1 °F7.0 °F70 %30.18 in10.0 miNW (320°)10.4 mphScattered Clouds
4:52 AM12.9 °F6.1 °F74 %30.19 in10.0 miNW (320°)9.2 mphClear
5:52 AM12.0 °F5.0 °F73 %30.22 in10.0 miNNW (330°)9.2 mphClear
6:52 AM10.9 °F3.9 °F73 %30.23 in10.0 miNW (320°)10.4 mphClear
7:52 AM10.9 °F3.9 °F73 %30.26 in10.0 miNW (320°)9.2 mphClear
8:52 AM14.0 °F3.9 °F64 %30.25 in10.0 miNNW (340°)10.4 mphClear
9:52 AM18.0 °F5.0 °F57 %30.24 in10.0 miNorth (350°)9.2 mphClear
10:52 AM19.9 °F5.0 °F52 %30.26 in10.0 miVariable6.9 mphClear
11:52 AM21.9 °F3.0 °F44 %30.24 in10.0 miNW (320°)6.9 mphClear
12:52 PM24.1 °F3.9 °F42 %30.22 in10.0 miWNW (290°)5.8 mphClear
1:52 PM24.1 °F3.0 °F40 %30.20 in10.0 miNW (310°)6.9 mphClear
2:52 PM23.0 °F3.0 °F42 %30.20 in10.0 miWest (280°)5.8 mphClear
3:52 PM21.9 °F3.0 °F44 %30.20 in10.0 miNW (320°)9.2 mphClear
4:52 PM18.0 °F1.9 °F50 %30.21 in10.0 miNW (310°)9.2 mphClear
5:52 PM16.0 °F3.0 °F57 %30.23 in10.0 miNW (310°)8.1 mphClear
6:52 PM15.1 °F3.9 °F61 %30.24 in10.0 miWest (270°)4.6 mphClear
7:52 PM14.0 °F3.9 °F64 %30.24 in10.0 miWest (280°)5.8 mphClear
8:52 PM12.9 °F1.9 °F62 %30.24 in10.0 miWest (260°)5.8 mphClear
9:52 PM12.0 °F1.9 °F64 %30.22 in10.0 miWNW (290°)4.6 mphClear
10:52 PM10.9 °F1.0 °F64 %30.22 in10.0 miWNW (290°)4.6 mphClear
11:52 PM10.9 °F1.0 °F64 %30.22 in10.0 miWest (260°)3.5 mphClear
Hourly data recorded from KPWK, located miles away from Chicago, Illinois







STORIES FROM OUR PARTNERS